Volver al catálogo

STARLINK-32785

ActivoComunicacionesVLEO
NORAD 62531·PAYLOAD·🇺🇸 United States

Lanzado Jan 8, 2025 desde Cape Canaveral Space Force Station

Loading…

Próximos Pases (próximas 24 horas)

TLE

ActualizadoSource: CelesTrak SupGP

Época: Sep 14, 2026, 21:11 UTC

1 62531C 25004W   26257.88312500  .00036403  00000+0  13189-2 0  2573
2 62531  43.0004 231.6202 0001192 257.0821   1.1049 15.27551346    19

Sigue STARLINK-32785 en tiempo real con AllMySat

Download on the App Store